Time,TemperatureF,DewpointF,PressureIn,WindDirection,WindDirectionDegrees,WindSpeedMPH,WindSpeedGustMPH,Humidity,HourlyPrecipIn,Conditions,Clouds,dailyrainin,SoftwareType,DateUTC
2013-07-26 00:00:00,68.9,63.9,29.91,SW,234,1.0,8.0,84,0.00,,,0.00,Wunderground v.1.15,2013-07-26 05:00:00,
2013-07-26 00:05:00,68.7,63.7,29.90,South,185,1.0,8.0,84,0.00,,,0.00,Wunderground v.1.15,2013-07-26 05:05:00,
2013-07-26 00:10:00,68.8,64.1,29.90,WSW,245,3.0,3.0,85,0.00,,,0.00,Wunderground v.1.15,2013-07-26 05:10:00,
2013-07-26 00:15:00,68.8,63.8,29.90,WSW,238,3.0,8.0,84,0.00,,,0.00,Wunderground v.1.15,2013-07-26 05:15:00,
2013-07-26 00:20:00,68.8,63.8,29.90,SSW,205,2.0,8.0,84,0.00,,,0.00,Wunderground v.1.15,2013-07-26 05:20:00,
2013-07-26 00:25:00,68.6,63.9,29.90,SSW,194,2.0,8.0,85,0.00,,,0.00,Wunderground v.1.15,2013-07-26 05:25:00,
2013-07-26 00:30:00,68.6,63.9,29.90,SSW,200,3.0,8.0,85,0.00,,,0.00,Wunderground v.1.15,2013-07-26 05:30:00,
2013-07-26 00:35:00,68.5,63.8,29.90,SW,225,2.0,8.0,85,0.00,,,0.00,Wunderground v.1.15,2013-07-26 05:35:00,
2013-07-26 00:40:00,68.5,63.8,29.90,SW,234,2.0,8.0,85,0.00,,,0.00,Wunderground v.1.15,2013-07-26 05:40:00,
2013-07-26 00:45:00,68.5,64.1,29.90,WSW,239,2.0,8.0,86,0.00,,,0.00,Wunderground v.1.15,2013-07-26 05:45:00,
2013-07-26 00:50:00,68.5,63.8,29.90,SW,214,3.0,8.0,85,0.00,,,0.00,Wunderground v.1.15,2013-07-26 05:50:00,
2013-07-26 00:55:00,68.4,64.0,29.90,SW,219,3.0,8.0,86,0.00,,,0.00,Wunderground v.1.15,2013-07-26 05:55:00,
2013-07-26 01:00:00,68.4,64.0,29.90,SW,224,2.0,8.0,86,0.00,,,0.00,Wunderground v.1.15,2013-07-26 06:00:00,
2013-07-26 01:05:00,68.3,63.9,29.90,SW,233,2.0,8.0,86,0.00,,,0.00,Wunderground v.1.15,2013-07-26 06:05:00,
2013-07-26 01:10:00,68.3,63.9,29.90,SW,227,2.0,8.0,86,0.00,,,0.00,Wunderground v.1.15,2013-07-26 06:10:00,
2013-07-26 01:15:00,68.2,63.9,29.90,South,184,2.0,8.0,86,0.00,,,0.00,Wunderground v.1.15,2013-07-26 06:15:00,
2013-07-26 01:20:00,68.1,63.8,29.90,South,184,2.0,2.0,86,0.00,,,0.00,Wunderground v.1.15,2013-07-26 06:20:00,
2013-07-26 01:25:00,68.1,63.8,29.90,SW,228,1.0,8.0,86,0.00,,,0.00,Wunderground v.1.15,2013-07-26 06:25:00,
2013-07-26 01:30:00,68.1,64.1,29.90,WNW,288,1.0,8.0,87,0.00,,,0.00,Wunderground v.1.15,2013-07-26 06:30:00,
2013-07-26 01:35:00,68.1,64.1,29.90,WSW,238,1.0,8.0,87,0.00,,,0.00,Wunderground v.1.15,2013-07-26 06:35:00,
2013-07-26 01:40:00,67.9,63.9,29.90,WSW,238,1.0,8.0,87,0.00,,,0.00,Wunderground v.1.15,2013-07-26 06:40:00,
2013-07-26 01:45:00,67.8,63.5,29.89,WSW,248,1.0,8.0,86,0.00,,,0.00,Wunderground v.1.15,2013-07-26 06:45:00,
2013-07-26 01:50:00,67.3,63.0,29.89,WSW,245,1.0,8.0,86,0.00,,,0.00,Wunderground v.1.15,2013-07-26 06:50:00,
2013-07-26 01:55:00,66.9,62.9,29.89,WSW,245,1.0,8.0,87,0.00,,,0.00,Wunderground v.1.15,2013-07-26 06:55:00,
2013-07-26 02:00:00,66.5,62.8,29.89,South,190,1.0,8.0,88,0.00,,,0.00,Wunderground v.1.15,2013-07-26 07:00:00,
2013-07-26 02:05:00,66.3,62.6,29.89,SSW,205,1.0,8.0,88,0.00,,,0.00,Wunderground v.1.15,2013-07-26 07:05:00,
2013-07-26 02:10:00,66.1,62.8,29.89,South,191,2.0,2.0,89,0.00,,,0.00,Wunderground v.1.15,2013-07-26 07:10:00,
2013-07-26 02:15:00,66.0,62.7,29.88,South,191,2.0,8.0,89,0.00,,,0.00,Wunderground v.1.15,2013-07-26 07:15:00,
2013-07-26 02:20:00,65.8,62.5,29.88,SSW,198,2.0,8.0,89,0.00,,,0.00,Wunderground v.1.15,2013-07-26 07:20:00,
2013-07-26 02:25:00,65.8,62.8,29.88,South,178,3.0,8.0,90,0.00,,,0.00,Wunderground v.1.15,2013-07-26 07:25:00,
2013-07-26 02:30:00,65.7,62.7,29.88,SW,223,3.0,3.0,90,0.00,,,0.00,Wunderground v.1.15,2013-07-26 07:30:00,
2013-07-26 02:35:00,65.7,62.7,29.88,SSW,196,3.0,4.0,90,0.00,,,0.00,Wunderground v.1.15,2013-07-26 07:35:00,
2013-07-26 02:40:00,65.7,62.7,29.88,SSW,209,3.0,3.0,90,0.00,,,0.00,Wunderground v.1.15,2013-07-26 07:40:00,
2013-07-26 02:45:00,65.6,62.6,29.88,SW,219,3.0,8.0,90,0.00,,,0.00,Wunderground v.1.15,2013-07-26 07:45:00,
2013-07-26 02:50:00,65.5,62.5,29.88,SSW,198,3.0,3.0,90,0.00,,,0.00,Wunderground v.1.15,2013-07-26 07:50:00,
2013-07-26 02:55:00,65.4,62.7,29.88,WSW,239,3.0,8.0,91,0.00,,,0.00,Wunderground v.1.15,2013-07-26 07:55:00,
2013-07-26 03:00:00,65.4,62.7,29.88,SW,219,3.0,8.0,91,0.00,,,0.00,Wunderground v.1.15,2013-07-26 08:00:00,
2013-07-26 03:05:00,65.5,62.8,29.88,WSW,242,3.0,8.0,91,0.00,,,0.00,Wunderground v.1.15,2013-07-26 08:05:00,
2013-07-26 03:10:00,65.6,62.6,29.88,WSW,245,3.0,3.0,90,0.00,,,0.00,Wunderground v.1.15,2013-07-26 08:10:00,
2013-07-26 03:15:00,65.7,62.7,29.88,WSW,239,3.0,8.0,90,0.00,,,0.00,Wunderground v.1.15,2013-07-26 08:15:00,
2013-07-26 03:20:00,65.7,62.7,29.87,SW,235,3.0,3.0,90,0.00,,,0.00,Wunderground v.1.15,2013-07-26 08:20:00,
2013-07-26 03:25:00,65.7,62.4,29.87,WSW,250,2.0,8.0,89,0.00,,,0.00,Wunderground v.1.15,2013-07-26 08:25:00,
2013-07-26 03:30:00,65.6,62.3,29.87,SW,221,2.0,8.0,89,0.00,,,0.00,Wunderground v.1.15,2013-07-26 08:30:00,
2013-07-26 03:35:00,65.3,62.0,29.87,SW,226,2.0,8.0,89,0.00,,,0.00,Wunderground v.1.15,2013-07-26 08:35:00,
2013-07-26 03:40:00,65.3,62.3,29.87,West,260,2.0,8.0,90,0.00,,,0.00,Wunderground v.1.15,2013-07-26 08:40:00,
2013-07-26 03:45:00,65.2,61.9,29.87,SW,219,2.0,8.0,89,0.00,,,0.00,Wunderground v.1.15,2013-07-26 08:45:00,
2013-07-26 03:50:00,65.1,62.1,29.87,SW,227,2.0,8.0,90,0.00,,,0.00,Wunderground v.1.15,2013-07-26 08:50:00,
2013-07-26 04:00:00,65.0,62.0,29.87,WSW,241,1.0,1.0,90,0.00,,,0.00,Wunderground v.1.15,2013-07-26 09:00:00,
2013-07-26 04:05:00,65.0,62.0,29.86,SSW,213,0.0,8.0,90,0.00,,,0.00,Wunderground v.1.15,2013-07-26 09:05:00,
2013-07-26 04:10:00,64.9,61.9,29.87,SSW,213,1.0,1.0,90,0.00,,,0.00,Wunderground v.1.15,2013-07-26 09:10:00,
2013-07-26 04:15:00,64.8,61.8,29.86,SSW,213,1.0,2.0,90,0.00,,,0.00,Wunderground v.1.15,2013-07-26 09:15:00,
2013-07-26 04:20:00,64.5,61.5,29.86,SSW,203,1.0,8.0,90,0.00,,,0.00,Wunderground v.1.15,2013-07-26 09:20:00,
2013-07-26 04:25:00,64.3,61.3,29.86,SSW,203,1.0,8.0,90,0.00,,,0.00,Wunderground v.1.15,2013-07-26 09:25:00,
2013-07-26 04:35:00,63.9,60.9,29.86,SSW,203,1.0,8.0,90,0.00,,,0.00,Wunderground v.1.15,2013-07-26 09:35:00,
2013-07-26 04:40:00,63.8,60.8,29.87,SSW,203,0.0,8.0,90,0.00,,,0.00,Wunderground v.1.15,2013-07-26 09:40:00,
2013-07-26 04:45:00,63.5,60.5,29.87,SSW,203,0.0,8.0,90,0.00,,,0.00,Wunderground v.1.15,2013-07-26 09:45:00,
2013-07-26 04:50:00,63.2,60.2,29.86,SSW,203,1.0,8.0,90,0.00,,,0.00,Wunderground v.1.15,2013-07-26 09:50:00,
2013-07-26 04:55:00,62.9,60.2,29.87,SSW,203,1.0,8.0,91,0.00,,,0.00,Wunderground v.1.15,2013-07-26 09:55:00,
2013-07-26 05:00:00,62.6,59.9,29.86,East,96,1.0,8.0,91,0.00,,,0.00,Wunderground v.1.15,2013-07-26 10:00:00,
2013-07-26 05:05:00,62.3,59.6,29.87,East,96,1.0,8.0,91,0.00,,,0.00,Wunderground v.1.15,2013-07-26 10:05:00,
2013-07-26 05:10:00,62.1,59.4,29.87,East,96,0.0,8.0,91,0.00,,,0.00,Wunderground v.1.15,2013-07-26 10:10:00,
2013-07-26 05:15:00,62.0,59.6,29.87,East,96,0.0,8.0,92,0.00,,,0.00,Wunderground v.1.15,2013-07-26 10:15:00,
2013-07-26 05:20:00,61.8,59.1,29.87,East,96,0.0,8.0,91,0.00,,,0.00,Wunderground v.1.15,2013-07-26 10:20:00,
2013-07-26 05:25:00,61.5,59.2,29.87,South,169,1.0,8.0,92,0.00,,,0.00,Wunderground v.1.15,2013-07-26 10:25:00,
2013-07-26 05:30:00,61.7,59.4,29.87,South,188,2.0,2.0,92,0.00,,,0.00,Wunderground v.1.15,2013-07-26 10:30:00,
2013-07-26 05:35:00,62.1,60.1,29.87,South,180,2.0,8.0,93,0.00,,,0.00,Wunderground v.1.15,2013-07-26 10:35:00,
2013-07-26 05:40:00,62.3,60.2,29.87,South,180,1.0,1.0,93,0.00,,,0.00,Wunderground v.1.15,2013-07-26 10:40:00,
2013-07-26 05:45:00,62.1,59.7,29.86,South,180,0.0,8.0,92,0.00,,,0.00,Wunderground v.1.15,2013-07-26 10:45:00,
2013-07-26 05:50:00,62.0,59.6,29.87,South,180,0.0,8.0,92,0.00,,,0.00,Wunderground v.1.15,2013-07-26 10:50:00,
2013-07-26 05:55:00,62.1,60.1,29.87,SSE,161,0.0,8.0,93,0.00,,,0.00,Wunderground v.1.15,2013-07-26 10:55:00,
2013-07-26 06:00:00,62.3,60.2,29.87,South,188,1.0,8.0,93,0.00,,,0.00,Wunderground v.1.15,2013-07-26 11:00:00,
2013-07-26 06:05:00,62.8,60.7,29.87,SW,231,1.0,8.0,93,0.00,,,0.00,Wunderground v.1.15,2013-07-26 11:05:00,
2013-07-26 06:10:00,63.2,61.1,29.87,SW,231,1.0,1.0,93,0.00,,,0.00,Wunderground v.1.15,2013-07-26 11:10:00,
2013-07-26 06:15:00,63.5,61.4,29.87,SW,231,1.0,8.0,93,0.00,,,0.00,Wunderground v.1.15,2013-07-26 11:15:00,
2013-07-26 06:20:00,63.8,61.7,29.87,SW,222,1.0,8.0,93,0.00,,,0.00,Wunderground v.1.15,2013-07-26 11:20:00,
2013-07-26 06:25:00,64.1,62.0,29.87,SW,224,1.0,8.0,93,0.00,,,0.00,Wunderground v.1.15,2013-07-26 11:25:00,
2013-07-26 06:30:00,64.3,62.2,29.87,SW,219,2.0,8.0,93,0.00,,,0.00,Wunderground v.1.15,2013-07-26 11:30:00,
2013-07-26 06:35:00,64.5,62.4,29.87,SW,218,2.0,8.0,93,0.00,,,0.00,Wunderground v.1.15,2013-07-26 11:35:00,
2013-07-26 06:40:00,64.6,62.5,29.87,SSW,207,2.0,8.0,93,0.00,,,0.00,Wunderground v.1.15,2013-07-26 11:40:00,
2013-07-26 06:45:00,64.7,62.3,29.87,WSW,237,2.0,8.0,92,0.00,,,0.00,Wunderground v.1.15,2013-07-26 11:45:00,
2013-07-26 06:50:00,64.9,62.5,29.87,WSW,242,2.0,8.0,92,0.00,,,0.00,Wunderground v.1.15,2013-07-26 11:50:00,
2013-07-26 06:55:00,65.1,62.7,29.87,SW,231,2.0,8.0,92,0.00,,,0.00,Wunderground v.1.15,2013-07-26 11:55:00,
2013-07-26 07:00:00,65.5,63.1,29.87,WSW,238,3.0,8.0,92,0.00,,,0.00,Wunderground v.1.15,2013-07-26 12:00:00,
2013-07-26 07:05:00,65.9,63.5,29.87,South,183,3.0,8.0,92,0.00,,,0.00,Wunderground v.1.15,2013-07-26 12:05:00,
2013-07-26 07:15:00,66.5,63.8,29.87,SW,227,4.0,8.0,91,0.00,,,0.00,Wunderground v.1.15,2013-07-26 12:15:00,
2013-07-26 07:25:00,66.9,63.6,29.87,SW,227,4.0,8.0,89,0.00,,,0.00,Wunderground v.1.15,2013-07-26 12:25:00,
2013-07-26 07:30:00,67.1,63.7,29.87,South,182,5.0,8.0,89,0.00,,,0.00,Wunderground v.1.15,2013-07-26 12:30:00,
2013-07-26 07:35:00,67.2,63.5,29.87,SW,217,5.0,8.0,88,0.00,,,0.00,Wunderground v.1.15,2013-07-26 12:35:00,
2013-07-26 07:40:00,67.3,63.6,29.87,SSW,203,5.0,8.0,88,0.00,,,0.00,Wunderground v.1.15,2013-07-26 12:40:00,
2013-07-26 07:45:00,67.3,63.3,29.87,SW,225,5.0,8.0,87,0.00,,,0.00,Wunderground v.1.15,2013-07-26 12:45:00,
2013-07-26 07:50:00,67.5,63.5,29.87,SW,217,5.0,5.0,87,0.00,,,0.00,Wunderground v.1.15,2013-07-26 12:50:00,
2013-07-26 07:55:00,67.5,63.2,29.87,SW,234,5.0,8.0,86,0.00,,,0.00,Wunderground v.1.15,2013-07-26 12:55:00,
2013-07-26 08:05:00,68.0,63.7,29.87,West,270,5.0,8.0,86,0.00,,,0.00,Wunderground v.1.15,2013-07-26 13:05:00,
2013-07-26 08:10:00,68.1,63.4,29.87,SW,214,4.0,4.0,85,0.00,,,0.00,Wunderground v.1.15,2013-07-26 13:10:00,
2013-07-26 08:15:00,68.1,63.4,29.87,WSW,239,5.0,5.0,85,0.00,,,0.00,Wunderground v.1.15,2013-07-26 13:15:00,
2013-07-26 08:25:00,68.0,63.7,29.87,WSW,252,4.0,8.0,86,0.00,,,0.00,Wunderground v.1.15,2013-07-26 13:25:00,
2013-07-26 08:30:00,68.0,63.7,29.87,SW,232,5.0,8.0,86,0.00,,,0.00,Wunderground v.1.15,2013-07-26 13:30:00,
2013-07-26 08:35:00,68.1,63.8,29.87,SSW,209,6.0,8.0,86,0.00,,,0.00,Wunderground v.1.15,2013-07-26 13:35:00,
2013-07-26 08:40:00,68.1,63.8,29.87,WSW,252,6.0,8.0,86,0.00,,,0.00,Wunderground v.1.15,2013-07-26 13:40:00,
2013-07-26 08:45:00,68.3,63.6,29.87,SW,228,6.0,8.0,85,0.00,,,0.00,Wunderground v.1.15,2013-07-26 13:45:00,
2013-07-26 08:50:00,68.4,63.7,29.87,SW,226,5.0,8.0,85,0.00,,,0.00,Wunderground v.1.15,2013-07-26 13:50:00,
2013-07-26 08:55:00,68.6,63.9,29.87,SW,217,5.0,8.0,85,0.00,,,0.00,Wunderground v.1.15,2013-07-26 13:55:00,
2013-07-26 09:05:00,69.5,64.5,29.87,WSW,237,6.0,10.0,84,0.00,,,0.00,Wunderground v.1.15,2013-07-26 14:05:00,
2013-07-26 09:10:00,69.3,63.9,29.87,SW,222,6.0,6.0,83,0.00,,,0.00,Wunderground v.1.15,2013-07-26 14:10:00,
2013-07-26 09:15:00,68.9,63.5,29.86,SSW,211,6.0,8.0,83,0.00,,,0.00,Wunderground v.1.15,2013-07-26 14:15:00,
2013-07-26 09:20:00,68.7,63.7,29.87,West,261,5.0,8.0,84,0.00,,,0.00,Wunderground v.1.15,2013-07-26 14:20:00,
2013-07-26 09:25:00,68.5,63.8,29.86,West,279,5.0,8.0,85,0.00,,,0.00,Wunderground v.1.15,2013-07-26 14:25:00,
2013-07-26 09:30:00,68.5,63.8,29.87,SW,227,4.0,8.0,85,0.00,,,0.00,Wunderground v.1.15,2013-07-26 14:30:00,
2013-07-26 09:35:00,68.4,64.0,29.86,SW,231,5.0,8.0,86,0.00,,,0.00,Wunderground v.1.15,2013-07-26 14:35:00,
2013-07-26 09:40:00,68.3,63.9,29.86,SSW,194,5.0,8.0,86,0.00,,,0.00,Wunderground v.1.15,2013-07-26 14:40:00,
2013-07-26 09:45:00,68.3,63.9,29.86,SW,220,4.0,8.0,86,0.00,,,0.00,Wunderground v.1.15,2013-07-26 14:45:00,
2013-07-26 09:50:00,68.3,63.9,29.86,West,260,4.0,4.0,86,0.00,,,0.00,Wunderground v.1.15,2013-07-26 14:50:00,
2013-07-26 09:55:00,68.6,64.2,29.86,WSW,255,4.0,8.0,86,0.00,,,0.00,Wunderground v.1.15,2013-07-26 14:55:00,
2013-07-26 10:00:00,68.8,64.4,29.86,SW,219,4.0,4.0,86,0.00,,,0.00,Wunderground v.1.15,2013-07-26 15:00:00,
2013-07-26 10:05:00,68.8,64.1,29.86,SW,225,4.0,8.0,85,0.00,,,0.00,Wunderground v.1.15,2013-07-26 15:05:00,
2013-07-26 10:10:00,68.8,64.1,29.85,SW,232,5.0,5.0,85,0.00,,,0.00,Wunderground v.1.15,2013-07-26 15:10:00,
2013-07-26 10:15:00,68.8,64.4,29.85,WSW,252,4.0,8.0,86,0.00,,,0.00,Wunderground v.1.15,2013-07-26 15:15:00,
2013-07-26 10:20:00,68.8,64.1,29.85,SW,214,4.0,4.0,85,0.00,,,0.00,Wunderground v.1.15,2013-07-26 15:20:00,
2013-07-26 10:25:00,68.6,64.2,29.85,WNW,288,4.0,8.0,86,0.00,,,0.00,Wunderground v.1.15,2013-07-26 15:25:00,
2013-07-26 10:30:00,68.7,64.0,29.85,West,266,4.0,4.0,85,0.00,,,0.00,Wunderground v.1.15,2013-07-26 15:30:00,
2013-07-26 10:40:00,69.1,64.4,29.84,SSW,211,3.0,8.0,85,0.00,,,0.00,Wunderground v.1.15,2013-07-26 15:40:00,
2013-07-26 10:45:00,69.0,64.3,29.84,West,263,4.0,8.0,85,0.00,,,0.00,Wunderground v.1.15,2013-07-26 15:45:00,
2013-07-26 10:50:00,69.1,64.4,29.84,WSW,239,4.0,4.0,85,0.00,,,0.00,Wunderground v.1.15,2013-07-26 15:50:00,
2013-07-26 10:55:00,69.1,64.4,29.83,South,187,3.0,5.0,85,0.00,,,0.00,Wunderground v.1.15,2013-07-26 15:55:00,
2013-07-26 11:00:00,69.0,64.3,29.83,SSW,192,3.0,8.0,85,0.00,,,0.00,Wunderground v.1.15,2013-07-26 16:00:00,
2013-07-26 11:10:00,69.0,64.6,29.83,SSW,201,3.0,8.0,86,0.00,,,0.00,Wunderground v.1.15,2013-07-26 16:10:00,
2013-07-26 11:15:00,69.0,64.6,29.83,SSW,198,4.0,8.0,86,0.00,,,0.00,Wunderground v.1.15,2013-07-26 16:15:00,
2013-07-26 11:20:00,68.8,64.4,29.83,West,267,4.0,4.0,86,0.00,,,0.00,Wunderground v.1.15,2013-07-26 16:20:00,
2013-07-26 11:25:00,68.9,64.9,29.83,SSW,213,4.0,8.0,87,0.00,,,0.00,Wunderground v.1.15,2013-07-26 16:25:00,
2013-07-26 11:35:00,68.8,64.8,29.82,SW,235,3.0,8.0,87,0.00,,,0.00,Wunderground v.1.15,2013-07-26 16:35:00,
2013-07-26 11:40:00,68.9,64.9,29.82,SW,220,4.0,8.0,87,0.00,,,0.00,Wunderground v.1.15,2013-07-26 16:40:00,
2013-07-26 11:50:00,69.1,65.1,29.82,SSE,166,4.0,8.0,87,0.00,,,0.00,Wunderground v.1.15,2013-07-26 16:50:00,
2013-07-26 11:55:00,69.0,65.0,29.82,SE,145,5.0,8.0,87,0.00,,,0.00,Wunderground v.1.15,2013-07-26 16:55:00,
2013-07-26 12:00:00,69.1,65.4,29.82,South,188,5.0,8.0,88,0.00,,,0.00,Wunderground v.1.15,2013-07-26 17:00:00,
2013-07-26 12:05:00,68.8,65.1,29.82,SSW,207,5.0,8.0,88,0.00,,,0.00,Wunderground v.1.15,2013-07-26 17:05:00,
2013-07-26 12:10:00,68.9,65.5,29.82,South,187,5.0,5.0,89,0.00,,,0.00,Wunderground v.1.15,2013-07-26 17:10:00,
2013-07-26 12:15:00,68.7,65.0,29.82,South,174,3.0,8.0,88,0.00,,,0.00,Wunderground v.1.15,2013-07-26 17:15:00,
2013-07-26 12:20:00,68.5,65.1,29.82,South,190,3.0,8.0,89,0.00,,,0.00,Wunderground v.1.15,2013-07-26 17:20:00,
2013-07-26 12:25:00,68.5,65.1,29.81,SW,226,3.0,8.0,89,0.90,,,0.07,Wunderground v.1.15,2013-07-26 17:25:00,
2013-07-26 12:35:00,68.3,65.6,29.80,SSE,163,2.0,8.0,91,0.13,,,0.09,Wunderground v.1.15,2013-07-26 17:35:00,
2013-07-26 12:40:00,68.3,65.6,29.80,SSE,155,2.0,8.0,91,0.06,,,0.09,Wunderground v.1.15,2013-07-26 17:40:00,
2013-07-26 12:45:00,68.2,65.5,29.80,SSE,167,3.0,8.0,91,0.04,,,0.09,Wunderground v.1.15,2013-07-26 17:45:00,
2013-07-26 12:50:00,68.1,65.4,29.80,SSW,197,3.0,3.0,91,0.00,,,0.09,Wunderground v.1.15,2013-07-26 17:50:00,
2013-07-26 12:55:00,68.0,65.6,29.79,South,172,3.0,4.0,92,0.00,,,0.09,Wunderground v.1.15,2013-07-26 17:55:00,
2013-07-26 13:05:00,67.7,65.3,29.78,SSW,206,2.0,8.0,92,0.00,,,0.09,Wunderground v.1.15,2013-07-26 18:05:00,
2013-07-26 13:10:00,67.6,65.2,29.79,SW,215,2.0,2.0,92,0.00,,,0.09,Wunderground v.1.15,2013-07-26 18:10:00,
2013-07-26 13:15:00,67.5,65.1,29.79,SW,232,3.0,3.0,92,0.00,,,0.09,Wunderground v.1.15,2013-07-26 18:15:00,
2013-07-26 13:20:00,67.4,65.0,29.78,South,171,3.0,3.0,92,0.25,,,0.11,Wunderground v.1.15,2013-07-26 18:20:00,
2013-07-26 13:25:00,67.3,64.9,29.78,SSE,159,2.0,8.0,92,0.13,,,0.11,Wunderground v.1.15,2013-07-26 18:25:00,
2013-07-26 13:35:00,67.3,64.9,29.80,NW,305,1.0,7.0,92,0.04,,,0.11,Wunderground v.1.15,2013-07-26 18:35:00,
2013-07-26 13:40:00,64.0,60.4,29.83,NNW,344,8.0,17.0,88,5.49,,,0.25,Wunderground v.1.15,2013-07-26 18:40:00,
2013-07-26 13:50:00,60.1,58.1,29.80,NNW,329,15.0,15.0,93,0.22,,,0.57,Wunderground v.1.15,2013-07-26 18:50:00,
2013-07-26 13:55:00,59.7,57.7,29.79,NNW,336,9.0,15.0,93,0.38,,,0.66,Wunderground v.1.15,2013-07-26 18:55:00,
2013-07-26 14:00:00,59.6,57.6,29.80,WNW,301,6.0,6.0,93,0.11,,,0.67,Wunderground v.1.15,2013-07-26 19:00:00,
2013-07-26 14:05:00,59.9,58.2,29.82,South,172,3.0,8.0,94,0.15,,,0.69,Wunderground v.1.15,2013-07-26 19:05:00,
2013-07-26 14:10:00,59.9,58.2,29.82,SSE,165,3.0,8.0,94,0.46,,,0.71,Wunderground v.1.15,2013-07-26 19:10:00,
2013-07-26 14:15:00,59.8,57.8,29.81,NNE,32,3.0,8.0,93,0.50,,,0.76,Wunderground v.1.15,2013-07-26 19:15:00,
2013-07-26 14:20:00,59.7,58.0,29.81,NE,42,2.0,2.0,94,0.28,,,0.79,Wunderground v.1.15,2013-07-26 19:20:00,
2013-07-26 14:25:00,59.9,58.2,29.81,SW,225,2.0,3.0,94,0.11,,,0.79,Wunderground v.1.15,2013-07-26 19:25:00,
2013-07-26 14:30:00,60.0,58.3,29.80,NNW,330,2.0,8.0,94,0.11,,,0.80,Wunderground v.1.15,2013-07-26 19:30:00,
2013-07-26 14:35:00,60.3,58.6,29.79,NW,317,3.0,8.0,94,0.09,,,0.81,Wunderground v.1.15,2013-07-26 19:35:00,
2013-07-26 14:40:00,60.3,58.6,29.79,NNW,327,4.0,4.0,94,0.12,,,0.82,Wunderground v.1.15,2013-07-26 19:40:00,
2013-07-26 14:45:00,60.4,58.7,29.77,NNE,15,4.0,8.0,94,0.22,,,0.84,Wunderground v.1.15,2013-07-26 19:45:00,
2013-07-26 14:50:00,60.4,58.7,29.78,NNW,333,3.0,3.0,94,0.18,,,0.85,Wunderground v.1.15,2013-07-26 19:50:00,
2013-07-26 14:55:00,60.5,58.8,29.78,WSW,247,1.0,8.0,94,0.07,,,0.85,Wunderground v.1.15,2013-07-26 19:55:00,
2013-07-26 15:00:00,60.6,58.9,29.79,South,184,1.0,8.0,94,0.04,,,0.85,Wunderground v.1.15,2013-07-26 20:00:00,
2013-07-26 15:05:00,60.7,59.3,29.80,South,189,3.0,8.0,95,0.00,,,0.85,Wunderground v.1.15,2013-07-26 20:05:00,
2013-07-26 15:10:00,60.7,59.0,29.80,SE,144,4.0,4.0,94,0.00,,,0.85,Wunderground v.1.15,2013-07-26 20:10:00,
2013-07-26 15:15:00,61.0,59.6,29.81,SE,136,4.0,8.0,95,0.00,,,0.85,Wunderground v.1.15,2013-07-26 20:15:00,
2013-07-26 15:25:00,61.8,60.4,29.82,SE,140,4.0,6.0,95,0.00,,,0.85,Wunderground v.1.15,2013-07-26 20:25:00,
2013-07-26 15:30:00,61.9,60.2,29.82,SSE,161,4.0,4.0,94,0.00,,,0.85,Wunderground v.1.15,2013-07-26 20:30:00,
2013-07-26 15:35:00,62.0,60.3,29.84,South,188,4.0,8.0,94,0.00,,,0.85,Wunderground v.1.15,2013-07-26 20:35:00,
2013-07-26 15:40:00,61.8,60.1,29.83,South,175,4.0,8.0,94,0.00,,,0.85,Wunderground v.1.15,2013-07-26 20:40:00,
2013-07-26 15:45:00,62.2,60.8,29.84,South,184,4.0,8.0,95,0.00,,,0.85,Wunderground v.1.15,2013-07-26 20:45:00,
2013-07-26 15:50:00,62.1,60.4,29.84,ESE,117,4.0,4.0,94,0.00,,,0.85,Wunderground v.1.15,2013-07-26 20:50:00,
2013-07-26 15:55:00,61.8,60.1,29.84,SSE,161,4.0,8.0,94,0.00,,,0.85,Wunderground v.1.15,2013-07-26 20:55:00,
2013-07-26 16:00:00,62.1,60.7,29.84,SW,234,3.0,8.0,95,0.00,,,0.85,Wunderground v.1.15,2013-07-26 21:00:00,
2013-07-26 16:05:00,62.7,61.2,29.83,SW,234,3.0,8.0,95,0.00,,,0.85,Wunderground v.1.15,2013-07-26 21:05:00,
2013-07-26 16:10:00,63.1,61.3,29.82,SE,136,3.0,8.0,94,0.00,,,0.85,Wunderground v.1.15,2013-07-26 21:10:00,
2013-07-26 16:15:00,63.1,61.0,29.81,SSE,163,3.0,8.0,93,0.00,,,0.85,Wunderground v.1.15,2013-07-26 21:15:00,
2013-07-26 16:25:00,63.3,61.2,29.81,SSE,166,4.0,8.0,93,0.00,,,0.85,Wunderground v.1.15,2013-07-26 21:25:00,
2013-07-26 16:35:00,63.5,61.4,29.81,SE,144,5.0,9.0,93,0.00,,,0.85,Wunderground v.1.15,2013-07-26 21:35:00,
2013-07-26 16:40:00,63.2,61.1,29.81,South,175,5.0,8.0,93,0.00,,,0.85,Wunderground v.1.15,2013-07-26 21:40:00,
2013-07-26 16:45:00,63.7,61.6,29.82,SSE,160,5.0,8.0,93,0.00,,,0.85,Wunderground v.1.15,2013-07-26 21:45:00,
2013-07-26 16:50:00,63.6,61.2,29.82,South,190,5.0,5.0,92,0.00,,,0.85,Wunderground v.1.15,2013-07-26 21:50:00,
2013-07-26 16:55:00,63.7,61.3,29.82,SSW,196,5.0,8.0,92,0.00,,,0.85,Wunderground v.1.15,2013-07-26 21:55:00,
2013-07-26 17:00:00,64.0,61.9,29.82,SE,129,4.0,8.0,93,0.00,,,0.85,Wunderground v.1.15,2013-07-26 22:00:00,
2013-07-26 17:05:00,64.4,62.3,29.83,SE,139,4.0,9.0,93,0.00,,,0.85,Wunderground v.1.15,2013-07-26 22:05:00,
2013-07-26 17:10:00,64.5,62.1,29.83,SSW,196,5.0,5.0,92,0.00,,,0.85,Wunderground v.1.15,2013-07-26 22:10:00,
2013-07-26 17:15:00,64.4,62.0,29.83,SW,217,5.0,8.0,92,0.00,,,0.85,Wunderground v.1.15,2013-07-26 22:15:00,
2013-07-26 17:20:00,64.4,62.0,29.82,SE,124,5.0,5.0,92,0.00,,,0.85,Wunderground v.1.15,2013-07-26 22:20:00,
2013-07-26 17:25:00,64.8,62.4,29.82,SE,138,4.0,8.0,92,0.00,,,0.85,Wunderground v.1.15,2013-07-26 22:25:00,
2013-07-26 17:30:00,64.7,62.0,29.82,SSE,152,5.0,8.0,91,0.00,,,0.85,Wunderground v.1.15,2013-07-26 22:30:00,
2013-07-26 17:35:00,64.4,61.7,29.82,SW,231,5.0,8.0,91,0.00,,,0.85,Wunderground v.1.15,2013-07-26 22:35:00,
2013-07-26 17:40:00,64.8,62.4,29.82,South,188,3.0,3.0,92,0.00,,,0.85,Wunderground v.1.15,2013-07-26 22:40:00,
2013-07-26 17:45:00,64.9,62.2,29.82,ESE,111,3.0,8.0,91,0.00,,,0.85,Wunderground v.1.15,2013-07-26 22:45:00,
2013-07-26 17:50:00,65.0,62.3,29.82,SE,146,4.0,4.0,91,0.00,,,0.85,Wunderground v.1.15,2013-07-26 22:50:00,
2013-07-26 17:55:00,65.0,62.3,29.82,SSW,198,3.0,8.0,91,0.00,,,0.85,Wunderground v.1.15,2013-07-26 22:55:00,
2013-07-26 18:00:00,65.2,62.5,29.83,ENE,75,3.0,8.0,91,0.00,,,0.85,Wunderground v.1.15,2013-07-26 23:00:00,
2013-07-26 18:05:00,64.9,61.9,29.83,ESE,114,3.0,8.0,90,0.00,,,0.85,Wunderground v.1.15,2013-07-26 23:05:00,
2013-07-26 18:10:00,65.0,62.3,29.82,South,186,3.0,3.0,91,0.00,,,0.85,Wunderground v.1.15,2013-07-26 23:10:00,
2013-07-26 18:15:00,65.0,62.0,29.82,SE,140,3.0,4.0,90,0.00,,,0.85,Wunderground v.1.15,2013-07-26 23:15:00,
2013-07-26 18:20:00,64.7,61.7,29.82,SE,142,4.0,4.0,90,0.00,,,0.85,Wunderground v.1.15,2013-07-26 23:20:00,
2013-07-26 18:25:00,64.5,61.8,29.83,SE,142,2.0,8.0,91,0.00,,,0.85,Wunderground v.1.15,2013-07-26 23:25:00,
2013-07-26 18:35:00,64.3,61.6,29.83,SE,142,0.0,8.0,91,0.00,,,0.85,Wunderground v.1.15,2013-07-26 23:35:00,
2013-07-26 18:40:00,64.2,61.5,29.83,SE,142,0.0,8.0,91,0.00,,,0.85,Wunderground v.1.15,2013-07-26 23:40:00,
2013-07-26 18:45:00,64.1,61.4,29.84,SE,142,0.0,8.0,91,0.00,,,0.85,Wunderground v.1.15,2013-07-26 23:45:00,
2013-07-26 18:50:00,64.0,61.3,29.83,SE,142,0.0,8.0,91,0.00,,,0.85,Wunderground v.1.15,2013-07-26 23:50:00,
2013-07-26 18:55:00,63.7,61.0,29.84,SE,142,0.0,8.0,91,0.00,,,0.85,Wunderground v.1.15,2013-07-26 23:55:00,
2013-07-26 19:00:00,63.6,61.2,29.85,North,5,0.0,8.0,92,0.00,,,0.85,Wunderground v.1.15,2013-07-27 00:00:00,
2013-07-26 19:05:00,63.7,61.6,29.86,NNW,347,1.0,8.0,93,0.00,,,0.85,Wunderground v.1.15,2013-07-27 00:05:00,
2013-07-26 19:10:00,62.3,59.3,29.87,NNW,341,6.0,8.0,90,0.00,,,0.85,Wunderground v.1.15,2013-07-27 00:10:00,
2013-07-26 19:15:00,61.4,58.4,29.86,East,97,9.0,9.0,90,0.41,,,0.87,Wunderground v.1.15,2013-07-27 00:15:00,
2013-07-26 19:20:00,60.9,57.9,29.86,NNE,24,7.0,7.0,90,0.12,,,0.88,Wunderground v.1.15,2013-07-27 00:20:00,
2013-07-26 19:25:00,60.4,57.8,29.84,NNE,27,5.0,8.0,91,0.06,,,0.88,Wunderground v.1.15,2013-07-27 00:25:00,
2013-07-26 19:30:00,60.2,57.9,29.83,ENE,75,5.0,8.0,92,0.05,,,0.89,Wunderground v.1.15,2013-07-27 00:30:00,
2013-07-26 19:35:00,60.0,57.7,29.82,ENE,67,6.0,8.0,92,0.05,,,0.89,Wunderground v.1.15,2013-07-27 00:35:00,
2013-07-26 19:40:00,60.0,57.7,29.82,East,98,4.0,4.0,92,0.05,,,0.89,Wunderground v.1.15,2013-07-27 00:40:00,
2013-07-26 19:45:00,60.1,57.8,29.82,South,186,3.0,8.0,92,0.00,,,0.89,Wunderground v.1.15,2013-07-27 00:45:00,
2013-07-26 19:50:00,60.2,57.9,29.81,South,183,2.0,8.0,92,0.00,,,0.89,Wunderground v.1.15,2013-07-27 00:50:00,
2013-07-26 19:55:00,60.4,58.4,29.82,West,271,3.0,8.0,93,0.00,,,0.89,Wunderground v.1.15,2013-07-27 00:55:00,
2013-07-26 20:00:00,60.5,58.5,29.84,SW,236,4.0,9.0,93,0.00,,,0.89,Wunderground v.1.15,2013-07-27 01:00:00,
2013-07-26 20:05:00,60.4,58.4,29.83,West,268,6.0,9.0,93,0.00,,,0.89,Wunderground v.1.15,2013-07-27 01:05:00,
2013-07-26 20:10:00,60.5,58.5,29.83,SW,228,4.0,4.0,93,0.00,,,0.89,Wunderground v.1.15,2013-07-27 01:10:00,
2013-07-26 20:15:00,60.4,58.4,29.83,West,271,3.0,8.0,93,0.00,,,0.89,Wunderground v.1.15,2013-07-27 01:15:00,
2013-07-26 20:20:00,60.4,58.4,29.83,WNW,285,3.0,3.0,93,0.00,,,0.89,Wunderground v.1.15,2013-07-27 01:20:00,
2013-07-26 20:25:00,60.3,58.3,29.84,West,273,3.0,4.0,93,0.00,,,0.89,Wunderground v.1.15,2013-07-27 01:25:00,
2013-07-26 20:30:00,60.1,58.1,29.85,West,276,3.0,8.0,93,0.00,,,0.89,Wunderground v.1.15,2013-07-27 01:30:00,
2013-07-26 20:35:00,60.0,58.0,29.85,West,279,4.0,8.0,93,0.00,,,0.89,Wunderground v.1.15,2013-07-27 01:35:00,
2013-07-26 20:40:00,59.9,57.9,29.86,WNW,296,3.0,8.0,93,0.00,,,0.89,Wunderground v.1.15,2013-07-27 01:40:00,
2013-07-26 20:50:00,59.5,57.5,29.85,NNW,335,4.0,8.0,93,0.00,,,0.89,Wunderground v.1.15,2013-07-27 01:50:00,
2013-07-26 20:55:00,59.3,57.6,29.85,NW,312,5.0,8.0,94,0.00,,,0.89,Wunderground v.1.15,2013-07-27 01:55:00,
2013-07-26 21:00:00,59.2,57.5,29.85,NNW,331,3.0,8.0,94,0.00,,,0.89,Wunderground v.1.15,2013-07-27 02:00:00,
2013-07-26 21:05:00,59.0,57.0,29.85,NNW,328,3.0,8.0,93,0.00,,,0.89,Wunderground v.1.15,2013-07-27 02:05:00,
2013-07-26 21:15:00,58.7,56.7,29.86,NW,320,4.0,8.0,93,0.00,,,0.89,Wunderground v.1.15,2013-07-27 02:15:00,
2013-07-26 21:20:00,58.6,56.6,29.86,WNW,292,2.0,8.0,93,0.00,,,0.89,Wunderground v.1.15,2013-07-27 02:20:00,
2013-07-26 21:30:00,58.6,56.6,29.86,West,275,3.0,3.0,93,0.00,,,0.89,Wunderground v.1.15,2013-07-27 02:30:00,
2013-07-26 21:35:00,58.6,56.6,29.86,NNW,331,4.0,6.0,93,0.00,,,0.89,Wunderground v.1.15,2013-07-27 02:35:00,
2013-07-26 21:40:00,58.6,56.6,29.86,WNW,300,5.0,8.0,93,0.00,,,0.89,Wunderground v.1.15,2013-07-27 02:40:00,
2013-07-26 21:50:00,58.7,57.0,29.86,NW,307,5.0,5.0,94,0.00,,,0.89,Wunderground v.1.15,2013-07-27 02:50:00,
2013-07-26 21:55:00,58.7,57.0,29.86,NNW,340,5.0,8.0,94,0.00,,,0.89,Wunderground v.1.15,2013-07-27 02:55:00,
2013-07-26 22:00:00,58.7,57.0,29.86,North,355,6.0,6.0,94,0.00,,,0.89,Wunderground v.1.15,2013-07-27 03:00:00,
2013-07-26 22:05:00,58.7,57.0,29.86,North,360,6.0,8.0,94,0.00,,,0.89,Wunderground v.1.15,2013-07-27 03:05:00,
2013-07-26 22:10:00,58.8,57.1,29.86,NW,322,6.0,8.0,94,0.00,,,0.89,Wunderground v.1.15,2013-07-27 03:10:00,
2013-07-26 22:15:00,58.5,56.5,29.86,NNW,340,7.0,13.0,93,0.00,,,0.89,Wunderground v.1.15,2013-07-27 03:15:00,
2013-07-26 22:20:00,57.7,55.7,29.86,NNW,331,10.0,13.0,93,0.00,,,0.89,Wunderground v.1.15,2013-07-27 03:20:00,
2013-07-26 22:30:00,57.0,55.0,29.86,NNE,27,10.0,10.0,93,0.00,,,0.89,Wunderground v.1.15,2013-07-27 03:30:00,
2013-07-26 22:35:00,56.9,54.9,29.86,NNW,329,10.0,10.0,93,0.00,,,0.89,Wunderground v.1.15,2013-07-27 03:35:00,
2013-07-26 22:40:00,56.7,54.7,29.86,NNW,335,9.0,10.0,93,0.00,,,0.89,Wunderground v.1.15,2013-07-27 03:40:00,
2013-07-26 22:45:00,56.4,54.4,29.86,NNW,336,9.0,11.0,93,0.00,,,0.89,Wunderground v.1.15,2013-07-27 03:45:00,
2013-07-26 22:50:00,56.2,54.2,29.87,NNW,331,9.0,12.0,93,0.00,,,0.89,Wunderground v.1.15,2013-07-27 03:50:00,
2013-07-26 22:55:00,55.8,53.8,29.86,NW,319,10.0,12.0,93,0.00,,,0.89,Wunderground v.1.15,2013-07-27 03:55:00,
2013-07-26 23:00:00,55.7,53.7,29.86,NW,304,10.0,10.0,93,0.00,,,0.89,Wunderground v.1.15,2013-07-27 04:00:00,
2013-07-26 23:05:00,55.2,52.9,29.86,NNW,334,9.0,10.0,92,0.00,,,0.89,Wunderground v.1.15,2013-07-27 04:05:00,
2013-07-26 23:10:00,54.9,52.9,29.86,NNW,342,9.0,9.0,93,0.00,,,0.89,Wunderground v.1.15,2013-07-27 04:10:00,
2013-07-26 23:15:00,54.5,52.2,29.87,North,355,9.0,9.0,92,0.00,,,0.89,Wunderground v.1.15,2013-07-27 04:15:00,
2013-07-26 23:20:00,54.2,51.9,29.87,NW,323,9.0,9.0,92,0.00,,,0.89,Wunderground v.1.15,2013-07-27 04:20:00,
2013-07-26 23:25:00,54.1,51.8,29.87,NNW,328,10.0,10.0,92,0.00,,,0.89,Wunderground v.1.15,2013-07-27 04:25:00,
2013-07-26 23:30:00,53.9,51.3,29.87,NNW,344,9.0,9.0,91,0.00,,,0.89,Wunderground v.1.15,2013-07-27 04:30:00,
2013-07-26 23:35:00,53.8,51.2,29.88,NW,306,9.0,9.0,91,0.00,,,0.89,Wunderground v.1.15,2013-07-27 04:35:00,
2013-07-26 23:40:00,53.6,51.0,29.88,NNW,336,8.0,10.0,91,0.00,,,0.89,Wunderground v.1.15,2013-07-27 04:40:00,
2013-07-26 23:45:00,53.3,50.7,29.88,NW,326,8.0,11.0,91,0.00,,,0.89,Wunderground v.1.15,2013-07-27 04:45:00,
2013-07-26 23:50:00,53.2,50.6,29.88,NW,324,8.0,8.0,91,0.00,,,0.89,Wunderground v.1.15,2013-07-27 04:50:00,
2013-07-26 23:55:00,53.1,50.5,29.88,NNW,329,8.0,12.0,91,0.00,,,0.89,Wunderground v.1.15,2013-07-27 04:55:00,